Simultaneous Nadir Overpasses (SNOs) Predictions

Prediction of SNOs between GOES-15 and NOAA-20 Satellite Orbit:

Table of predicted SNOs for the next 14.0 days since TLE Epoch: 6/4/2022
Index Date Time (GOES-15) GOES-15 Lat,Lon NOAA-20 Lat,Lon Distance(km) Time Diff (sec)
1 06/05/2022 09:59:35 0.02,-128.14 0.18,-128.86 82.25 80
2 06/06/2022 09:43:30 0.03,-128.16 -0.80,-124.32 437.08 80
3 06/07/2022 22:02:47 -0.01,-128.20 -0.31,-129.65 164.81 80
4 06/08/2022 21:46:42 -0.02,-128.22 0.68,-125.11 354.53 80
5 06/10/2022 10:05:49 -0.01,-128.26 0.48,-130.38 242.47 80
6 06/11/2022 09:49:43 0.00,-128.27 -0.51,-125.84 276.15 80
7 06/12/2022 22:09:01 0.03,-128.29 -0.59,-131.17 327.64 80
8 06/13/2022 21:52:55 0.02,-128.30 0.40,-126.63 190.59 80
9 06/15/2022 10:12:03 -0.05,-128.33 0.76,-131.90 407.73 80
10 06/16/2022 09:55:57 -0.04,-128.34 -0.23,-127.37 109.94 80
11 06/17/2022 22:15:13 0.07,-128.33 -0.92,-132.68 495.33 80
